Zurück zum Katalog

FENGYUN 1C DEB

AktivSSO
NORAD 29961·DEBRIS·🇨🇳 China

Gestartet May 10, 1999 von Taiyuan Satellite Launch Center

Loading…

Nächste Überflüge (nächste 24 Stunden)

TLE

AktuellSource: Space-Track

Epoche: Sep 14, 2026, 03:11 UTC

1 29961U 99025KK  26257.13272642  .00000181  00000-0  91804-4 0  9997
2 29961  98.9166 155.0600 0073629 227.5805 131.9131 14.26416714 22358

Verfolge FENGYUN 1C DEB in Echtzeit mit AllMySat

Download on the App Store